Location: Assche-ter-Heiden
(50.9174°N, 4.1574°E)
Time: 22:00:58
(UTC+00:00)

Abrixas rocket - Pass Details

Date: 20 January 2020
Orbit: 353 x 361 km, 48.4° (Epoch: 16 February)

Event Time Altitude Azimuth Distance (km) Brightness Sun altitude
Exits shadow 06:01:51 25° 241° (WSW) 785 3.2 -14.4°
Maximum altitude 06:02:57 34° 197° (SSW) 623 3.1 -14.2°
Drops below altitude 10° 06:05:44 10° 130° (SE) 1,348 5.9 -13.8°
Sets 06:07:52 0° 121° (ESE) 2,194 7.5 -13.5°
